MOLNIYA 3-8

Last updated on Tue Jun 27 2023 00:03:05 GMT+0000 (Coordinated Universal Time)

1 10455U 77105A 23176.96738401 .00001138 00000+0 16876-2 0 9994 2 10455 63.5384 302.5889 7263815 282.7542 11.3175 2.00559226334552
UTC large
Height (km)
Speed (km/s)
/
Latitude / Longitude
Inclination (degrees)
Orbital Period (minutes)
Azimuth
Elevation
Range (km)
Doppler Factor

Next 0 passes for location: London (51.5072 / 0.1276)

Sorry there are no passes over London.